Terminal Aerodrome Forecast
Issued by NWS Wakefield, VA

Home | Current Version | Previous Version | Text Only | Print | Product List | Glossary On
Versions: 1 2 3 4 5 6 7 8 9 10 11 12 13 14 15 16 17 18 19
865
FTUS41 KAKQ 080914 AAC
TAFECG
TAF AMD
KECG 080914Z 0809/0906 33015G23KT P6SM SCT030
     FM081500 31010KT P6SM SCT030 SCT120
     FM082100 14007KT P6SM OVC100
     FM090200 15007KT 6SM -RA BR OVC030=

USA.gov is the U.S. government's official web portal to all federal, state and local government web resources and services.